Location: Palomar Mountain Lodge
(33.3110°N, 116.8495°W)
Time: 03:08:40
(UTC-08:00)

Cosmos 1939 Rocket - Pass Details

Date: 12 July 2018
Orbit: 534 x 584 km, 97.5° (Epoch: 19 December)

Event Time Altitude Azimuth Distance (km) Brightness Sun altitude
Rises 19:37:58 0° 131° (SE) 2,705 5.7 3.1°
Reaches altitude 10° 19:40:42 10° 110° (ESE) 1,807 4.8 2.6°
Drops below altitude 10° 19:45:42 10° 30° (NNE) 1,800 5.4 1.6°
Enters shadow 20:43:12 -65° 171° (S) 12,143 9.5 -8.9°
Maximum altitude 21:17:53 26° 263° (W) 1,084 4.8 -14.7°
